| time (UTC) | temp F | wind direction | speed MPH | gust MPH | rain 1hr in | rain 24hr in | rain mn in | humidity % | barometer mb |
| 20260510070854 | 58 | 135 | 1.0 | 1.0 | 0.00 | 0.00 | 0.00 | 54 | 1014.3 |
| 20260510065248 | 58 | 135 | 2.0 | 3.0 | 0.00 | 0.00 | 0.00 | 54 | 1014.2 |
| 20260510064847 | 58 | 135 | 2.0 | 3.0 | 0.00 | 0.00 | 0.00 | 54 | 1014.3 |
| 20260510064445 | 58 | 135 | 2.0 | 2.0 | 0.00 | 0.00 | 0.00 | 54 | 1014.3 |
| 20260510064044 | 58 | 81 | 1.0 | 1.0 | 0.00 | 0.00 | 0.00 | 54 | 1014.3 |
| 20260510063235 | 58 | 135 | 1.0 | 1.0 | 0.00 | 0.00 | 0.00 | 54 | 1014.3 |
| 20260510060833 | 59 | 81 | 0.0 | 0.0 | 0.00 | 0.00 | 0.00 | 53 | 1014.3 |
| 20260510060431 | 59 | 42 | 0.0 | 1.0 | 0.00 | 0.00 | 0.00 | 53 | 1014.3 |
| 20260510060025 | 59 | 45 | 0.0 | 1.0 | 0.00 | 0.00 | 0.00 | 53 | 1014.3 |
| 20260510055624 | 60 | 135 | 1.0 | 2.0 | 0.00 | 0.00 | 0.00 | 53 | 1014.4 |
| 20260510055223 | 59 | 135 | 1.0 | 1.0 | 0.00 | 0.00 | 0.00 | 53 | 1014.3 |
| 20260510054822 | 60 | 135 | 0.0 | 0.0 | 0.00 | 0.00 | 0.00 | 52 | 1014.3 |
| 20260510054420 | 60 | 180 | 0.0 | 1.0 | 0.00 | 0.00 | 0.00 | 52 | 1014.3 |
| 20260510054021 | 60 | 180 | 1.0 | 1.0 | 0.00 | 0.00 | 0.00 | 52 | 1014.3 |
| 20260510053216 | 60 | 191 | 1.0 | 1.0 | 0.00 | 0.00 | 0.00 | 52 | 1014.3 |
| 20260510052817 | 60 | 182 | 0.0 | 1.0 | 0.00 | 0.00 | 0.00 | 52 | 1014.4 |
| 20260510052416 | 60 | 180 | 0.0 | 1.0 | 0.00 | 0.00 | 0.00 | 52 | 1014.4 |
| 20260510052413 | 60 | 180 | 0.0 | 1.0 | 0.00 | 0.00 | 0.00 | 52 | 1014.4 |
| 20260510052012 | 60 | 135 | 0.0 | 2.0 | 0.00 | 0.00 | 0.00 | 52 | 1014.4 |
| 20260510051611 | 60 | 186 | 0.0 | 1.0 | 0.00 | 0.00 | 0.00 | 51 | 1014.4 |
| 20260510051211 | 60 | 230 | 0.0 | 1.0 | 0.00 | 0.00 | 0.00 | 51 | 1014.5 |
| 20260510050810 | 60 | 135 | 1.0 | 1.0 | 0.00 | 0.00 | 0.00 | 51 | 1014.5 |
| 20260510050407 | 60 | 303 | 0.0 | 0.0 | 0.00 | 0.00 | 0.00 | 51 | 1014.4 |
| 20260510044804 | 61 | 78 | 1.0 | 3.0 | 0.00 | 0.00 | 0.00 | 50 | 1014.3 |
| 20260510044401 | 61 | 130 | 3.0 | 3.0 | 0.00 | 0.00 | 0.00 | 50 | 1014.2 |
| 20260510044001 | 61 | 135 | 2.0 | 3.0 | 0.00 | 0.00 | 0.00 | 50 | 1014.2 |
| 20260510043600 | 61 | 135 | 3.0 | 4.0 | 0.00 | 0.00 | 0.00 | 50 | 1014.3 |
| 20260510043204 | 61 | 135 | 3.0 | 5.0 | 0.00 | 0.00 | 0.00 | 49 | 1014.2 |
| 20260510042756 | 61 | 126 | 4.0 | 4.0 | 0.00 | 0.00 | 0.00 | 49 | 1014.2 |
| 20260510042354 | 61 | 123 | 4.0 | 7.0 | 0.00 | 0.00 | 0.00 | 49 | 1014.1 |
| 20260510041953 | 61 | 121 | 5.0 | 5.0 | 0.00 | 0.00 | 0.00 | 49 | 1014.2 |
| 20260510041554 | 61 | 123 | 3.0 | 4.0 | 0.00 | 0.00 | 0.00 | 48 | 1014.1 |
| 20260510041150 | 61 | 119 | 2.0 | 3.0 | 0.00 | 0.00 | 0.00 | 48 | 1014.0 |
| 20260510040749 | 61 | 128 | 4.0 | 4.0 | 0.00 | 0.00 | 0.00 | 48 | 1014.0 |
| 20260510035546 | 62 | 114 | 5.0 | 5.0 | 0.00 | 0.00 | 0.00 | 47 | 1013.8 |
| 20260510035144 | 62 | 112 | 3.0 | 4.0 | 0.00 | 0.00 | 0.00 | 46 | 1013.8 |
| 20260510034742 | 62 | 114 | 3.0 | 6.0 | 0.00 | 0.00 | 0.00 | 46 | 1013.8 |
| 20260510034341 | 62 | 128 | 5.0 | 6.0 | 0.00 | 0.00 | 0.00 | 46 | 1013.7 |
| 20260510033940 | 62 | 108 | 4.0 | 6.0 | 0.00 | 0.00 | 0.00 | 45 | 1013.7 |
| 20260510033539 | 63 | 105 | 5.0 | 6.0 | 0.00 | 0.00 | 0.00 | 45 | 1013.6 |
| 20260510032739 | 64 | 123 | 4.0 | 4.0 | 0.00 | 0.00 | 0.00 | 44 | 1013.5 |
| 20260510032335 | 64 | 112 | 2.0 | 5.0 | 0.00 | 0.00 | 0.00 | 44 | 1013.5 |
| 20260510031934 | 64 | 110 | 4.0 | 6.0 | 0.00 | 0.00 | 0.00 | 43 | 1013.4 |
| 20260510031532 | 64 | 110 | 4.0 | 5.0 | 0.00 | 0.00 | 0.00 | 43 | 1013.2 |
| 20260510031131 | 65 | 135 | 6.0 | 7.0 | 0.00 | 0.00 | 0.00 | 42 | 1013.2 |
| 20260510030731 | 65 | 135 | 5.0 | 9.0 | 0.00 | 0.00 | 0.00 | 41 | 1013.2 |
| 20260510030329 | 66 | 112 | 3.0 | 7.0 | 0.00 | 0.00 | 0.00 | 41 | 1013.1 |
| 20260510025927 | 66 | 123 | 6.0 | 7.0 | 0.00 | 0.00 | 0.00 | 40 | 1013.1 |
| 20260510025526 | 67 | 135 | 5.0 | 7.0 | 0.00 | 0.00 | 0.00 | 40 | 1013.0 |
| 20260510025126 | 67 | 135 | 5.0 | 6.0 | 0.00 | 0.00 | 0.00 | 39 | 1012.9 |
| 20260510024724 | 67 | 135 | 7.0 | 7.0 | 0.00 | 0.00 | 0.00 | 38 | 1012.8 |
| 20260510024322 | 67 | 110 | 6.0 | 7.0 | 0.00 | 0.00 | 0.00 | 38 | 1012.8 |
| 20260510023921 | 68 | 108 | 6.0 | 6.0 | 0.00 | 0.00 | 0.00 | 38 | 1012.8 |
| 20260510023524 | 68 | 128 | 6.0 | 7.0 | 0.00 | 0.00 | 0.00 | 37 | 1012.6 |
| 20260510023118 | 69 | 90 | 5.0 | 6.0 | 0.00 | 0.00 | 0.00 | 36 | 1012.7 |
| 20260510021916 | 70 | 126 | 7.0 | 9.0 | 0.00 | 0.00 | 0.00 | 34 | 1012.5 |
| 20260510021111 | 71 | 94 | 7.0 | 10.0 | 0.00 | 0.00 | 0.00 | 33 | 1012.4 |
| 20260510020710 | 72 | 99 | 14.0 | 17.0 | 0.00 | 0.00 | 0.00 | 33 | 1012.3 |
| 20260510020312 | 72 | 112 | 4.0 | 12.0 | 0.00 | 0.00 | 0.00 | 32 | 1012.3 |
| 20260510015508 | 73 | 112 | 8.0 | 13.0 | 0.00 | 0.00 | 0.00 | 32 | 1012.2 |
| 20260510015106 | 74 | 108 | 7.0 | 13.0 | 0.00 | 0.00 | 0.00 | 31 | 1012.3 |
| 20260510014704 | 75 | 135 | 6.0 | 13.0 | 0.00 | 0.00 | 0.00 | 31 | 1012.3 |
| 20260510014303 | 75 | 135 | 8.0 | 9.0 | 0.00 | 0.00 | 0.00 | 30 | 1012.3 |
| 20260510013903 | 76 | 135 | 8.0 | 9.0 | 0.00 | 0.00 | 0.00 | 30 | 1012.2 |
| 20260510013059 | 76 | 139 | 8.0 | 12.0 | 0.00 | 0.00 | 0.00 | 30 | 1012.2 |
| 20260510012659 | 76 | 135 | 9.0 | 19.0 | 0.00 | 0.00 | 0.00 | 29 | 1012.1 |
| 20260510012256 | 77 | 135 | 7.0 | 12.0 | 0.00 | 0.00 | 0.00 | 29 | 1012.1 |
| 20260510011855 | 78 | 135 | 8.0 | 14.0 | 0.00 | 0.00 | 0.00 | 29 | 1012.2 |
| 20260510011454 | 78 | 139 | 5.0 | 8.0 | 0.00 | 0.00 | 0.00 | 29 | 1012.1 |
| 20260510011053 | 79 | 135 | 6.0 | 13.0 | 0.00 | 0.00 | 0.00 | 28 | 1012.1 |
| 20260510010652 | 79 | 135 | 13.0 | 13.0 | 0.00 | 0.00 | 0.00 | 28 | 1012.0 |
| 20260510004645 | 81 | 130 | 7.0 | 9.0 | 0.00 | 0.00 | 0.00 | 27 | 1012.0 |
| 20260510003845 | 81 | 121 | 6.0 | 9.0 | 0.00 | 0.00 | 0.00 | 27 | 1012.0 |
| 20260510003441 | 82 | 108 | 7.0 | 8.0 | 0.00 | 0.00 | 0.00 | 26 | 1012.1 |
| 20260510003039 | 83 | 135 | 9.0 | 10.0 | 0.00 | 0.00 | 0.00 | 26 | 1012.1 |
| 20260510002641 | 84 | 144 | 6.0 | 8.0 | 0.00 | 0.00 | 0.00 | 26 | 1012.1 |
| 20260510002237 | 84 | 147 | 6.0 | 8.0 | 0.00 | 0.00 | 0.00 | 25 | 1012.1 |
| 20260510001839 | 85 | 148 | 7.0 | 9.0 | 0.00 | 0.00 | 0.00 | 26 | 1012.0 |
| 20260510001435 | 85 | 135 | 9.0 | 11.0 | 0.00 | 0.00 | 0.00 | 25 | 1012.0 |
| 20260510001033 | 85 | 135 | 7.0 | 9.0 | 0.00 | 0.00 | 0.00 | 25 | 1012.0 |
| 20260510000233 | 85 | 139 | 4.0 | 10.0 | 0.00 | 0.00 | 0.00 | 25 | 1012.2 |
| 20260509235829 | 86 | 139 | 9.0 | 11.0 | 0.00 | 0.00 | 0.00 | 25 | 1012.1 |
| 20260509235430 | 86 | 135 | 11.0 | 11.0 | 0.00 | 0.00 | 0.00 | 25 | 1012.1 |
| 20260509234626 | 86 | 171 | 2.0 | 9.0 | 0.00 | 0.00 | 0.00 | 25 | 1012.1 |
| 20260509234225 | 86 | 153 | 9.0 | 13.0 | 0.00 | 0.00 | 0.00 | 24 | 1012.1 |
| 20260509233824 | 85 | 180 | 4.0 | 10.0 | 0.00 | 0.00 | 0.00 | 25 | 1012.1 |
| 20260509233422 | 85 | 135 | 8.0 | 16.0 | 0.00 | 0.00 | 0.00 | 25 | 1012.2 |
| 20260509233021 | 86 | 123 | 7.0 | 13.0 | 0.00 | 0.00 | 0.00 | 24 | 1012.1 |
| 20260509232619 | 85 | 99 | 6.0 | 15.0 | 0.00 | 0.00 | 0.00 | 24 | 1012.3 |
| 20260509231416 | 87 | 135 | 9.0 | 15.0 | 0.00 | 0.00 | 0.00 | 25 | 1012.3 |
| 20260509225412 | 90 | 177 | 6.0 | 7.0 | 0.00 | 0.00 | 0.00 | 25 | 1012.4 |
| 20260509225008 | 89 | 180 | 3.0 | 8.0 | 0.00 | 0.00 | 0.00 | 25 | 1012.4 |
| 20260509224212 | 86 | 135 | 6.0 | 9.0 | 0.00 | 0.00 | 0.00 | 25 | 1012.5 |
| 20260509222159 | 85 | 112 | 9.0 | 10.0 | 0.00 | 0.00 | 0.00 | 25 | 1012.7 |
| 20260509221400 | 86 | 139 | 10.0 | 11.0 | 0.00 | 0.00 | 0.00 | 25 | 1012.8 |
| 20260509220553 | 87 | 146 | 9.0 | 10.0 | 0.00 | 0.00 | 0.00 | 25 | 1012.9 |
| 20260509220152 | 86 | 184 | 5.0 | 9.0 | 0.00 | 0.00 | 0.00 | 25 | 1013.0 |
| 20260509215752 | 85 | 173 | 4.0 | 16.0 | 0.00 | 0.00 | 0.00 | 25 | 1013.0 |
| 20260509214948 | 85 | 135 | 6.0 | 16.0 | 0.00 | 0.00 | 0.00 | 25 | 1013.1 |
| 20260509213746 | 85 | 135 | 8.0 | 10.0 | 0.00 | 0.00 | 0.00 | 26 | 1013.2 |
| 20260509213348 | 86 | 135 | 9.0 | 10.0 | 0.00 | 0.00 | 0.00 | 26 | 1013.3 |
| 20260509212554 | 88 | 138 | 3.0 | 11.0 | 0.00 | 0.00 | 0.00 | 26 | 1013.3 |
| 20260509210953 | 87 | 137 | 8.0 | 9.0 | 0.00 | 0.00 | 0.00 | 27 | 1013.5 |
| 20260509210539 | 86 | 135 | 7.0 | 11.0 | 0.00 | 0.00 | 0.00 | 26 | 1013.5 |
| 20260509210141 | 86 | 135 | 5.0 | 11.0 | 0.00 | 0.00 | 0.00 | 27 | 1013.6 |
| 20260509205731 | 87 | 215 | 2.0 | 9.0 | 0.00 | 0.00 | 0.00 | 27 | 1013.6 |
| 20260509204528 | 87 | 139 | 6.0 | 10.0 | 0.00 | 0.00 | 0.00 | 27 | 1013.8 |
| 20260509204127 | 87 | 162 | 1.0 | 7.0 | 0.00 | 0.00 | 0.00 | 27 | 1013.8 |
| 20260509203725 | 85 | 130 | 2.0 | 9.0 | 0.00 | 0.00 | 0.00 | 27 | 1013.8 |
| 20260509202521 | 85 | 112 | 10.0 | 11.0 | 0.00 | 0.00 | 0.00 | 27 | 1013.7 |
| 20260509202120 | 85 | 130 | 6.0 | 11.0 | 0.00 | 0.00 | 0.00 | 27 | 1013.9 |
| 20260509201724 | 85 | 128 | 8.0 | 8.0 | 0.00 | 0.00 | 0.00 | 27 | 1013.9 |
| 20260509201722 | 85 | 128 | 8.0 | 8.0 | 0.00 | 0.00 | 0.00 | 27 | 1013.9 |
| 20260509201319 | 85 | 94 | 4.0 | 12.0 | 0.00 | 0.00 | 0.00 | 27 | 1013.9 |
| 20260509200917 | 88 | 119 | 5.0 | 8.0 | 0.00 | 0.00 | 0.00 | 27 | 1013.9 |
| 20260509200514 | 87 | 180 | 3.0 | 9.0 | 0.00 | 0.00 | 0.00 | 27 | 1013.9 |
| 20260509195712 | 85 | 28 | 2.0 | 9.0 | 0.00 | 0.00 | 0.00 | 28 | 1013.9 |
| 20260509195311 | 86 | 90 | 5.0 | 8.0 | 0.00 | 0.00 | 0.00 | 28 | 1013.9 |
| 20260509194910 | 85 | 76 | 4.0 | 9.0 | 0.00 | 0.00 | 0.00 | 28 | 1013.9 |
| 20260509194509 | 87 | 108 | 3.0 | 5.0 | 0.00 | 0.00 | 0.00 | 28 | 1014.0 |
| 20260509194108 | 87 | 83 | 3.0 | 9.0 | 0.00 | 0.00 | 0.00 | 28 | 1013.9 |
| 20260509193305 | 91 | 132 | 6.0 | 6.0 | 0.00 | 0.00 | 0.00 | 28 | 1014.2 |
| 20260509192908 | 89 | 153 | 3.0 | 6.0 | 0.00 | 0.00 | 0.00 | 28 | 1014.2 |
| 20260509192502 | 89 | 180 | 1.0 | 4.0 | 0.00 | 0.00 | 0.00 | 28 | 1014.2 |
| 20260509192100 | 86 | 119 | 2.0 | 5.0 | 0.00 | 0.00 | 0.00 | 29 | 1014.2 |
| 20260509191700 | 86 | 130 | 4.0 | 10.0 | 0.00 | 0.00 | 0.00 | 29 | 1014.2 |
| 20260509191258 | 87 | 182 | 7.0 | 8.0 | 0.00 | 0.00 | 0.00 | 29 | 1014.2 |
| 20260509190457 | 86 | 135 | 4.0 | 6.0 | 0.00 | 0.00 | 0.00 | 29 | 1014.2 |
| 20260509185653 | 87 | 191 | 2.0 | 8.0 | 0.00 | 0.00 | 0.00 | 29 | 1014.4 |
| 20260509185251 | 87 | 97 | 4.0 | 5.0 | 0.00 | 0.00 | 0.00 | 29 | 1014.5 |
| 20260509184850 | 88 | 139 | 3.0 | 6.0 | 0.00 | 0.00 | 0.00 | 30 | 1014.6 |
| 20260509184450 | 89 | 310 | 0.0 | 2.0 | 0.00 | 0.00 | 0.00 | 30 | 1014.6 |
| 20260509183647 | 87 | 261 | 2.0 | 5.0 | 0.00 | 0.00 | 0.00 | 30 | 1014.6 |
| 20260509183245 | 85 | 191 | 4.0 | 4.0 | 0.00 | 0.00 | 0.00 | 31 | 1014.6 |
| 20260509181641 | 84 | 144 | 2.0 | 4.0 | 0.00 | 0.00 | 0.00 | 32 | 1014.8 |
| 20260509174831 | 83 | 182 | 0.0 | 3.0 | 0.00 | 0.00 | 0.00 | 35 | 1015.0 |
| 20260509173221 | 79 | 168 | 2.0 | 3.0 | 0.00 | 0.00 | 0.00 | 37 | 1015.1 |
| 20260509172421 | 76 | 205 | 1.0 | 3.0 | 0.00 | 0.00 | 0.00 | 39 | 1015.1 |
| 20260509171615 | 742 | 28 | 1.0 | 2.0 | 0.00 | 0.00 | 0.00 | 41 | 1015.0 |
| 20260509171213 | 76 | 180 | 2.0 | 5.0 | 0.00 | 0.00 | 0.00 | 42 | 1015.0 |
| 20260509170812 | 76 | 311 | 0.0 | 3.0 | 0.00 | 0.00 | 0.00 | 43 | 1015.0 |
| 20260509170414 | 75 | 242 | 2.0 | 4.0 | 0.00 | 0.00 | 0.00 | 44 | 1015.0 |
| 20260509164807 | 73 | 274 | 3.0 | 5.0 | 0.00 | 0.00 | 0.00 | 47 | 1015.0 |
| 20260509164405 | 71 | 270 | 2.0 | 3.0 | 0.00 | 0.00 | 0.00 | 48 | 1014.9 |
| 20260509164005 | 69 | 288 | 3.0 | 3.0 | 0.00 | 0.00 | 0.00 | 48 | 1.0 |
| 20260509163604 | 67 | 322 | 0.0 | 3.0 | 0.00 | 0.00 | 0.00 | 49 | 1015.1 |
| 20260509163200 | 67 | 27 | 1.0 | 3.0 | 0.00 | 0.00 | 0.00 | 49 | 1015.0 |
| 20260509162759 | 67 | 45 | 2.0 | 4.0 | 0.00 | 0.00 | 0.00 | 50 | 1015.1 |
| 20260509162358 | 67 | 308 | 1.0 | 4.0 | 0.00 | 0.00 | 0.00 | 50 | 1015.1 |
| 20260509161957 | 66 | 87 | 4.0 | 4.0 | 0.00 | 0.00 | 0.00 | 51 | 1015.1 |
| 20260509161556 | 67 | 5 | 1.0 | 3.0 | 0.00 | 0.00 | 0.00 | 52 | 1015.2 |
| 20260509161154 | 66 | 92 | 0.0 | 1.0 | 0.00 | 0.00 | 0.00 | 52 | 1015.2 |
| 20260509160757 | 65 | 144 | 1.0 | 1.0 | 0.00 | 0.00 | 0.00 | 53 | 1015.2 |
| 20260509160355 | 64 | 59 | 2.0 | 4.0 | 0.00 | 0.00 | 0.00 | 53 | 1015.3 |
| 20260509155950 | 64 | 182 | 1.0 | 4.0 | 0.00 | 0.00 | 0.00 | 53 | 1015.3 |
| 20260509155553 | 64 | 193 | 0.0 | 1.0 | 0.00 | 0.00 | 0.00 | 53 | 1015.2 |
| 20260509155149 | 63 | 85 | 1.0 | 4.0 | 0.00 | 0.00 | 0.00 | 54 | 1015.3 |
| 20260509153543 | 61 | 76 | 5.0 | 5.0 | 0.00 | 0.00 | 0.00 | 54 | 1015.4 |
| 20260509153141 | 61 | 78 | 4.0 | 5.0 | 0.00 | 0.00 | 0.00 | 54 | 1015.3 |
| 20260509152740 | 61 | 72 | 4.0 | 5.0 | 0.00 | 0.00 | 0.00 | 55 | 1015.3 |
| 20260509152341 | 61 | 99 | 4.0 | 9.0 | 0.00 | 0.00 | 0.00 | 55 | 1015.3 |
| 20260509151135 | 61 | 135 | 0.0 | 3.0 | 0.00 | 0.00 | 0.00 | 56 | 1015.2 |
| 20260509150333 | 60 | 22 | 1.0 | 4.0 | 0.00 | 0.00 | 0.00 | 57 | 1015.2 |
| 20260509145934 | 61 | 55 | 1.0 | 3.0 | 0.00 | 0.00 | 0.00 | 57 | 1015.2 |
| 20260509145134 | 61 | 233 | 0.0 | 1.0 | 0.00 | 0.00 | 0.00 | 59 | 1015.1 |
| 20260509144727 | 61 | 237 | 0.0 | 1.0 | 0.00 | 0.00 | 0.00 | 58 | 1015.2 |
| 20260509143534 | 60 | 230 | 0.0 | 2.0 | 0.00 | 0.00 | 0.00 | 58 | 1015.0 |
| 20260509142721 | 59 | 182 | 1.0 | 1.0 | 0.00 | 0.00 | 0.00 | 57 | 1015.1 |
| 20260509142319 | 59 | 135 | 0.0 | 1.0 | 0.00 | 0.00 | 0.00 | 57 | 1015.0 |
| 20260509140314 | 58 | 135 | 1.0 | 4.0 | 0.00 | 0.00 | 0.00 | 58 | 1015.0 |
| 20260509135512 | 58 | 81 | 2.0 | 4.0 | 0.00 | 0.00 | 0.00 | 58 | 1015.0 |
| 20260509134708 | 58 | 40 | 3.0 | 3.0 | 0.00 | 0.00 | 0.00 | 58 | 1014.9 |
| 20260509134312 | 58 | 22 | 1.0 | 1.0 | 0.00 | 0.00 | 0.00 | 58 | 1015.0 |
| 20260509133915 | 58 | 333 | 0.0 | 2.0 | 0.00 | 0.00 | 0.00 | 58 | 1014.9 |
| 20260509133103 | 58 | 25 | 1.0 | 2.0 | 0.00 | 0.00 | 0.00 | 57 | 1014.9 |
| 20260509132301 | 58 | 42 | 0.0 | 0.0 | 0.00 | 0.00 | 0.00 | 57 | 1014.7 |
| 20260509131859 | 58 | 78 | 0.0 | 0.0 | 0.00 | 0.00 | 0.00 | 57 | 1014.6 |
| 20260509131457 | 58 | 274 | 0.0 | 1.0 | 0.00 | 0.00 | 0.00 | 57 | 1014.7 |
| 20260509130254 | 58 | 207 | 0.0 | 1.0 | 0.00 | 0.00 | 0.00 | 57 | 1014.7 |
| 20260509125853 | 58 | 200 | 1.0 | 2.0 | 0.00 | 0.00 | 0.00 | 57 | 1014.7 |
| 20260509125451 | 58 | 182 | 0.0 | 1.0 | 0.00 | 0.00 | 0.00 | 57 | 1014.6 |
| 20260509125050 | 58 | 306 | 0.0 | 2.0 | 0.00 | 0.00 | 0.00 | 57 | 1014.5 |
| 20260509123846 | 58 | 94 | 1.0 | 2.0 | 0.00 | 0.00 | 0.00 | 57 | 1014.6 |
| 20260509123445 | 58 | 42 | 1.0 | 3.0 | 0.00 | 0.00 | 0.00 | 57 | 1014.5 |
| 20260509122639 | 58 | 42 | 1.0 | 2.0 | 0.00 | 0.00 | 0.00 | 57 | 1014.5 |
| 20260509121835 | 58 | 60 | 1.0 | 2.0 | 0.00 | 0.00 | 0.00 | 57 | 1014.5 |
| 20260509121436 | 58 | 81 | 0.0 | 3.0 | 0.00 | 0.00 | 0.00 | 57 | 1014.5 |
| 20260509120629 | 58 | 96 | 1.0 | 4.0 | 0.00 | 0.00 | 0.00 | 57 | 1014.4 |
| 20260509120228 | 58 | 81 | 3.0 | 3.0 | 0.00 | 0.00 | 0.00 | 57 | 1014.3 |
| 20260509115827 | 58 | 299 | 0.0 | 1.0 | 0.00 | 0.00 | 0.00 | 57 | 1014.5 |
| 20260509115025 | 58 | 27 | 0.0 | 0.0 | 0.00 | 0.00 | 0.00 | 57 | 1014.4 |
| 20260509114628 | 58 | 235 | 0.0 | 1.0 | 0.00 | 0.00 | 0.00 | 57 | 1014.4 |
| 20260509114222 | 58 | 42 | 0.0 | 0.0 | 0.00 | 0.00 | 0.00 | 57 | 1014.4 |
| 20260509113825 | 58 | 135 | 1.0 | 1.0 | 0.00 | 0.00 | 0.00 | 57 | 1014.5 |
| 20260509113422 | 58 | 135 | 0.0 | 3.0 | 0.00 | 0.00 | 0.00 | 57 | 1014.5 |
| 20260509111413 | 58 | 135 | 1.0 | 2.0 | 0.00 | 0.00 | 0.00 | 57 | 1014.5 |
| 20260509105808 | 58 | 99 | 4.0 | 4.0 | 0.00 | 0.00 | 0.00 | 57 | 1014.6 |
| 20260509105406 | 58 | 135 | 2.0 | 2.0 | 0.00 | 0.00 | 0.00 | 57 | 1014.6 |
| 20260509103804 | 58 | 180 | 1.0 | 3.0 | 0.00 | 0.00 | 0.00 | 57 | 1014.6 |
| 20260509103401 | 58 | 155 | 0.0 | 3.0 | 0.00 | 0.00 | 0.00 | 57 | 1014.5 |
| 20260509102159 | 58 | 137 | 4.0 | 7.0 | 0.00 | 0.00 | 0.00 | 57 | 1014.6 |
| 20260509101354 | 58 | 180 | 0.0 | 6.0 | 0.00 | 0.00 | 0.00 | 57 | 1014.7 |
| 20260509100954 | 58 | 195 | 3.0 | 8.0 | 0.00 | 0.00 | 0.00 | 57 | 1014.7 |
| 20260509094946 | 58 | 135 | 4.0 | 5.0 | 0.00 | 0.00 | 0.00 | 57 | 1014.8 |
| 20260509094143 | 58 | 135 | 3.0 | 3.0 | 0.00 | 0.00 | 0.00 | 57 | 1014.8 |
| 20260509093743 | 58 | 139 | 3.0 | 4.0 | 0.00 | 0.00 | 0.00 | 57 | 1014.8 |
| 20260509093341 | 58 | 135 | 4.0 | 5.0 | 0.00 | 0.00 | 0.00 | 57 | 1014.8 |
| 20260509092940 | 58 | 135 | 3.0 | 3.0 | 0.00 | 0.00 | 0.00 | 57 | 1014.9 |
| 20260509091738 | 58 | 132 | 2.0 | 3.0 | 0.00 | 0.00 | 0.00 | 58 | 1014.8 |
| 20260509091736 | 58 | 132 | 2.0 | 3.0 | 0.00 | 0.00 | 0.00 | 58 | 1014.8 |
| 20260509091334 | 58 | 123 | 2.0 | 4.0 | 0.00 | 0.00 | 0.00 | 58 | 1015.0 |
| 20260509090934 | 58 | 94 | 3.0 | 5.0 | 0.00 | 0.00 | 0.00 | 58 | 1014.8 |
| 20260509090532 | 58 | 85 | 2.0 | 3.0 | 0.00 | 0.00 | 0.00 | 58 | 1015.0 |
| 20260509090131 | 58 | 135 | 3.0 | 5.0 | 0.00 | 0.00 | 0.00 | 58 | 1015.0 |
| 20260509085730 | 58 | 135 | 2.0 | 4.0 | 0.00 | 0.00 | 0.00 | 58 | 1014.9 |
| 20260509085328 | 57 | 99 | 1.0 | 3.0 | 0.00 | 0.00 | 0.00 | 58 | 1015.0 |
| 20260509084124 | 56 | 83 | 1.0 | 1.0 | 0.00 | 0.00 | 0.00 | 58 | 1015.1 |
| 20260509083724 | 56 | 135 | 1.0 | 1.0 | 0.00 | 0.00 | 0.00 | 58 | 1015.0 |
| 20260509082119 | 56 | 135 | 1.0 | 2.0 | 0.00 | 0.00 | 0.00 | 57 | 1015.4 |
| 20260509081720 | 56 | 135 | 0.0 | 4.0 | 0.00 | 0.00 | 0.00 | 57 | 1015.2 |
| 20260509081321 | 56 | 135 | 1.0 | 2.0 | 0.00 | 0.00 | 0.00 | 57 | 1015.2 |
| 20260509080917 | 56 | 200 | 1.0 | 1.0 | 0.00 | 0.00 | 0.00 | 57 | 1015.3 |
| 20260509080513 | 56 | 180 | 0.0 | 0.0 | 0.00 | 0.00 | 0.00 | 57 | 1015.3 |
| 20260509080113 | 56 | 135 | 0.0 | 1.0 | 0.00 | 0.00 | 0.00 | 57 | 1015.3 |
| 20260509075710 | 56 | 81 | 0.0 | 1.0 | 0.00 | 0.00 | 0.00 | 57 | 1015.3 |
| 20260509074507 | 56 | 135 | 2.0 | 2.0 | 0.00 | 0.00 | 0.00 | 57 | 1015.4 |
| 20260509074105 | 56 | 135 | 2.0 | 3.0 | 0.00 | 0.00 | 0.00 | 57 | 1015.3 |
| 20260509073703 | 57 | 135 | 2.0 | 2.0 | 0.00 | 0.00 | 0.00 | 56 | 1015.4 |
| 20260509073302 | 57 | 135 | 2.0 | 2.0 | 0.00 | 0.00 | 0.00 | 56 | 1015.4 |
| 20260509072901 | 57 | 135 | 0.0 | 1.0 | 0.00 | 0.00 | 0.00 | 56 | 1015.4 |
| 20260509072502 | 57 | 135 | 1.0 | 2.0 | 0.00 | 0.00 | 0.00 | 56 | 1015.4 |
| 20260509072059 | 57 | 135 | 1.0 | 1.0 | 0.00 | 0.00 | 0.00 | 56 | 1015.4 |
| 20260509071658 | 56 | 135 | 0.0 | 0.0 | 0.00 | 0.00 | 0.00 | 56 | 1015.5 |